リニア彗星

C/2000 CT54 ( LINEAR )

English version
Home page
Updated on January 11, 2004

---------------------------------------------------------------------

・ プロフィール

発見日 2000年2月2日
発見光度 18.9等
発見者 Lincoln Laboratory Near-Earth Asteroid Research project

・ 軌道要素

Epoch 2001 June 20.0 TT = JDT 2452080.5
T 2001 June 19.5032 TT                                  MPCN
q   3.156087             (2000.0)            P               Q
z  +0.000412       Peri.  272.6499      +0.2558229      +0.9348889
 +/-0.000003       Node    18.9651      -0.2516615      +0.3101411
e   0.998701       Incl.   49.2070      -0.9333923      +0.1726128
From 88 observations 2000 Jan. 28-2001 Nov. 13, mean residual 0".7.

・ 星図

・ 光度変化

        m1 = 6.5 + 5 logΔ + 10.0 log r

---------------------------------------------------------------------

軌道要素はMPCのEphemerides and Orbital Elementsに掲載されたものです。
星図は StellaNavigator Ver.2.0 for Windows (アストロアーツ 編著 / アスキー出版局刊) で作成したものです。
光度グラフはComet for Windowsで作成したものです。

---------------------------------------------------------------------

Copyright(C) Seiichi Yoshida (comet@aerith.net). All rights reserved.